Tracking 35035 objects as of 16-Aug-2026
HD Live streaming from Space Station
objects crossing your sky now

SL-6 R/B(1)


SL-6 R/B(1) is no longer on orbit


NORAD ID: 12917
Int'l Code: 1981-105C
Launch date: October 17, 1981
Source: Commonwealth of Independent States (former USSR) (CIS)
Launch site: PLESETSK MISSILE AND SPACE COMPLEX (PKMTR)
Decay date: 1981-11-06

Note: This is a ROCKET BODY
Your satellite tracking list
Your tracking list is empty




NASA's NSSDC Master Catalog

Two Line Element Set (TLE):
1 12917U 81105  C 81310.56978062  .16586986 +09728-5 +08224-4 0  9991
2 12917 062.7972 347.6762 0035349 104.1766 256.2049 16.43803978003201
Source of the keplerian elements: AFSPC